logo tempoitalia

Diretta Meteo Pescara, Italiagiovedì 30 giugno ore 21:50

Mappa
Sereno 27 °C Sereno 24 Ore: T.min 20 T.max 32
Ponente Nord Km/h 3.7 Punto di rugiada: 23 °C Umidità: 78% Visibilità: 10 Km
Il sole sorge alle: 05:27 Il sole tramonta alle: 20:45
30 Giugno 2022 21:50 tempo osservato: Sereno Sereno 27 78 1012 vento: Nord N 3.7
30 Giugno 2022 21:20 tempo osservato: Sereno Sereno 26 83 1012 vento: Nord E/NE 7.4
30 Giugno 2022 20:50 tempo osservato: Sereno Sereno 27 74 1012 vento: Nord NE 7.4
30 Giugno 2022 20:20 tempo osservato: Sereno Sereno 28 65 1012 vento: Nord E 9.3
30 Giugno 2022 19:50 tempo osservato: Sereno Sereno 28 69 1012 vento: Nord E/NE 11.1
30 Giugno 2022 19:20 tempo osservato: Sereno Sereno 28 69 1012 vento: Nord E/NE 14.8
30 Giugno 2022 18:50 tempo osservato: Sereno Sereno 29 66 1011 vento: Nord E/NE 16.7
30 Giugno 2022 18:20 tempo osservato: Sereno Sereno 30 62 1011 vento: Nord E/NE 14.8
30 Giugno 2022 17:50 tempo osservato: Sereno Sereno 30 62 1011 vento: Nord E/NE 13
30 Giugno 2022 17:20 tempo osservato: Sereno Sereno 30 58 1011 vento: Nord E 14.8
30 Giugno 2022 16:50 tempo osservato: Sereno Sereno 30 58 1012 vento: Nord E 16.7
30 Giugno 2022 16:20 tempo osservato: Sereno Sereno 30 58 1012 vento: Nord E 18.5
30 Giugno 2022 15:50 tempo osservato: Sereno Sereno 30 55 1012 vento: Nord E 20.3
30 Giugno 2022 15:20 tempo osservato: Sereno Sereno 30 58 1012 vento: Nord E/NE 20.3
30 Giugno 2022 14:50 tempo osservato: Sereno Sereno 31 52 1012 vento: Nord E/NE 20.3
30 Giugno 2022 14:20 tempo osservato: Sereno Sereno 31 48 1012 vento: Nord E 20.3
30 Giugno 2022 13:50 tempo osservato: Sereno Sereno 32 49 1012 vento: Nord E/NE 18.5
30 Giugno 2022 13:20 tempo osservato: Sereno Sereno 31 48 1012 vento: Nord E/NE 20.3
30 Giugno 2022 12:50 tempo osservato: Sereno Sereno 31 52 1012 vento: Nord E/NE 20.3
30 Giugno 2022 12:20 tempo osservato: Sereno Sereno 31 55 1012 vento: Nord E/NE 14.8
30 Giugno 2022 11:50 tempo osservato: Sereno Sereno 30 58 1012 vento: Nord E/NE 18.5
30 Giugno 2022 11:20 tempo osservato: Sereno Sereno 30 58 1012 vento: Nord NE 16.7
30 Giugno 2022 10:50 tempo osservato: Sereno Sereno 30 55 1012 vento: Nord E/NE 18.5
30 Giugno 2022 10:20 tempo osservato: Sereno Sereno 30 51 1012 vento: Nord NE 9.3
30 Giugno 2022 09:50 tempo osservato: Sereno Sereno 31 45 1012 vento: Nord N 3.7
30 Giugno 2022 09:20 tempo osservato: Sereno Sereno 29 51 1012 vento: Nord N 5.5
30 Giugno 2022 08:50 tempo osservato: Sereno Sereno 28 54 1012 vento: Nord N 3.7
30 Giugno 2022 08:20 tempo osservato: Sereno Sereno 26 61 1012 vento: Nord N 5.5
30 Giugno 2022 07:50 tempo osservato: Sereno Sereno 24 73 1012 vento: Nord N 5.5
30 Giugno 2022 07:20 tempo osservato: Sereno Sereno 23 78 1012 vento: Nord SO 9.3
30 Giugno 2022 06:50 tempo osservato: Sereno Sereno 22 83 1012 vento: Nord N 5.5
30 Giugno 2022 06:20 tempo osservato: Sereno Sereno 21 88 1012 vento: Nord S/SO 9.3
30 Giugno 2022 05:50 tempo osservato: Sereno Sereno 20 88 1012 vento: Nord N 5.5
30 Giugno 2022 05:20 tempo osservato: Sereno Sereno 20 88 1012 vento: Nord SO 7.4
30 Giugno 2022 04:50 tempo osservato: Sereno Sereno 21 82 1012 vento: Nord SO 7.4
30 Giugno 2022 04:20 tempo osservato: Sereno Sereno 21 82 1012 vento: Nord S/SO 7.4
30 Giugno 2022 03:50 tempo osservato: Sereno Sereno 21 88 1012 vento: Nord N 3.7
30 Giugno 2022 03:20 tempo osservato: Sereno Sereno 22 83 1012 vento: Nord O/SO 7.4
30 Giugno 2022 02:50 tempo osservato: Sereno Sereno 21 88 1012 vento: Nord SO 9.3
30 Giugno 2022 02:20 tempo osservato: Sereno Sereno 23 78 1012 vento: Nord N 5.5
30 Giugno 2022 01:50 tempo osservato: Sereno Sereno 23 78 1012 vento: Nord N 1.8
30 Giugno 2022 01:20 tempo osservato: Sereno Sereno 23 78 1012 vento: Nord O/SO 9.3
30 Giugno 2022 00:50 tempo osservato: Sereno Sereno 23 78 1012 vento: Nord O/SO 9.3
30 Giugno 2022 00:20 tempo osservato: Sereno Sereno 24 73 1012 vento: Nord O/SO 7.4
29 Giugno 2022 23:50 tempo osservato: Sereno Sereno 24 73 1012 vento: Nord S 9.3
29 Giugno 2022 23:20 tempo osservato: Poco Nuvoloso Poco Nuvoloso 24 78 1012 vento: Nord N 5.5
29 Giugno 2022 22:50 tempo osservato: Sereno Sereno 24 78 1012 vento: Nord N 1.8